Printer-friendly version
Follow the MPC on Twitter Follow the MPC on Facebook The MPC blog
Minor Planet Center

MPEC 2006-Y10 : 2006 XV4

The following Minor Planet Electronic Circular may be linked-to from your own Web pages, but must not otherwise be redistributed electronically.

A form allowing access to any MPEC is at the bottom of this page.


Read MPEC 2006-Y09 Read MPEC 2006-Y11


M.P.E.C. 2006-Y10                                Issued 2006 Dec. 17, 14:45 UT

     The Minor Planet Electronic Circulars contain information on unusual
         minor planets and routine data on comets.  They are published
   on behalf of Commission 20 of the International Astronomical Union by the
          Minor Planet Center, Smithsonian Astrophysical Observatory,
                          Cambridge, MA 02138, U.S.A.

             Prepared using the Tamkin Foundation Computer Network

                              MPC@CFA.HARVARD.EDU
          URL http://cfa-www.harvard.edu/iau/mpc.html  ISSN 1523-6714

                                   2006 XV4

Observations:
     K06X04V* C2006 12 13.26877 04 10 57.48 +13 14 46.9          17.3   EY010704
     K06X04V  C2006 12 13.28188 04 11 59.38 +13 13 49.9          17.1   EY010704
     K06X04V  C2006 12 13.29474 04 12 59.94 +13 12 52.3          17.5   EY010704
     K06X04V  C2006 12 13.30766 04 14 00.41 +13 11 54.1          17.5   EY010704
     K06X04V  C2006 12 16.32576 06 36 58.39 +08 46 35.7          18.2   EY010704
     K06X04V  C2006 12 16.35236 06 37 33.58 +08 44 51.4          18.2   EY010704
     K06X04V  C2006 12 16.36545 06 37 50.79 +08 44 01.5          18.5   EY010704
     K06X04V  C2006 12 16.37855 06 38 08.04 +08 43 10.0          18.5   EY010704

Observer details:
704 Lincoln Laboratory ETS, New Mexico.  Observers M. Bezpalko, D. Torres,
    R. Kracke, G. Spitz, J. Kistler.  Measurers J. Stuart, S. Scruggs.  1.0-m
    f/2.15 reflector + CCD.

Orbital elements:
2006 XV4                                                 Earth MOID = 0.0046 AU
Epoch 2007 Apr. 10.0 TT = JDT 2454200.5                 MPC
M  31.66153              (2000.0)            P               Q
n   0.23457470     Peri.  159.36769     +0.52178757     -0.85032810
a   2.6038458      Node   259.12360     +0.77259337     +0.50504065
e   0.6276001      Incl.    3.99451     +0.36171427     +0.14790562
P   4.20           H   24.6           G   0.15           U   8
Residuals in seconds of arc
061213 704  0.3-  0.1+    061213 704  0.7-  0.3+    061216 704  0.5-  0.6+
061213 704  0.0   0.0     061216 704  0.3+  0.4-    061216 704  0.6+  0.5+
061213 704  1.0+  0.4-    061216 704  0.3-  0.7-

Ephemeris:
2006 XV4                 a,e,i = 2.60, 0.63, 4                   q = 0.9697
Date    TT    R. A. (2000) Decl.     Delta      r     Elong.  Phase     V
2006 12 11    00 44.58   +10 59.0    0.0151   0.991   115.7    63.5    17.7
2006 12 13    03 48.01   +13 34.0    0.0141   0.997   156.3    23.4    16.4
2006 12 15    05 55.01   +10 33.9    0.0205   1.004   165.8    13.9    17.0
2006 12 17    06 51.35   +08 08.8    0.0299   1.012   156.6    22.7    18.1
2006 12 19    07 19.37   +06 46.3    0.0403   1.020   152.1    26.8    18.9
2006 12 21    07 35.45   +05 57.8    0.0511   1.028   150.2    28.4    19.5
2006 12 23    07 45.62   +05 28.2    0.0621   1.038   149.6    28.6    19.9
2006 12 25    07 52.47   +05 10.1    0.0733   1.048   149.9    28.1    20.3
2006 12 27    07 57.28   +04 59.4    0.0847   1.058   150.5    27.2    20.6
2006 12 29    08 00.74   +04 53.9    0.0963   1.069   151.5    26.0    20.8
2006 12 31    08 03.27   +04 52.3    0.108    1.080   152.8    24.6    21.1
2007 01 02    08 05.13   +04 53.6    0.120    1.092   154.1    23.2    21.3
2007 01 04    08 06.47   +04 57.3    0.132    1.105   155.5    21.6    21.5
2007 01 06    08 07.44   +05 03.1    0.144    1.117   157.0    20.1    21.6
2007 01 08    08 08.11   +05 10.4    0.157    1.131   158.5    18.6    21.8
2007 01 10    08 08.55   +05 19.2    0.169    1.144   160.0    17.1    21.9

Kyle E. Smalley              (C) Copyright 2006 MPC           M.P.E.C. 2006-Y10

Read MPEC 2006-Y09 Read MPEC 2006-Y11


MPEC number:

Enter an MPEC number in one of the following forms:

  • 1997-B01 (the full form)
  • J97B01 (the packed version of the full form)
  • B01 (the abbreviated form)

Valid HTML 4.01!